Location: Bieujac
(44.5398°N, 0.1549°W)
Time: 20:41:29
(UTC+00:00)

Lacrosse 5 - Pass Details

Date: 17 November 2019
Orbit: 715 x 724 km, 57.0° (Epoch: 30 November)

Event Time Altitude Azimuth Distance (km) Brightness Sun altitude
Exits shadow 04:42:40 40° 346° (NNW) 1,052 2.5 -24.2°
Drops below altitude 10° 04:46:57 10° 41° (NE) 2,208 4.8 -23.4°
Sets 04:49:27 0° 48° (NE) 3,129 5.8 -23.0°
